Regional Weather Roundup
Issued by NWS

Home | Current Version | Previous Version | Text Only | Print | Product List | Glossary Off
Versions: 1 2 3 4 5 6 7 8 9 10 11 12 13 14 15 16 17 18 19 20 21 22 23 24 25 26 27 28 29 30 31 32 33 34 35 36 37 38 39 40 41 42 43 44 45 46 47 48 49 50

553
ASUS43 KMPX 200310
RWRMN
WEATHER ROUNDUP FOR MINNESOTA
NATIONAL WEATHER SERVICE TWIN CITIES/CHANHASSEN MN
900 PM CST FRI JAN 19 2018


NOTE: "FAIR" INDICATES FEW OR NO CLOUDS BELOW 12,000 FEET WITH NO
SIGNIFICANT WEATHER AND/OR OBSTRUCTIONS TO VISIBILITY. N/A MEANS
CURRENT SKY AND/OR WEATHER CONDITIONS ARE NOT AVAILABLE.

MNZ060>063-068>070-200400-
   Twin Cities Metro

CITY           SKY/WX    TMP DP  RH WIND       PRES   REMARKS
TWIN CITIES    MOCLDY    39  32  76 W6        29.64R
ST PAUL        FAIR      35  31  85 NW7       29.65R WCI  29
CRYSTAL        FAIR      39  28  64 W7        29.63R
BLAINE         MOCLDY    39  32  75 W7        29.62R
LAKEVILLE      FAIR      37  32  81 W8        29.63R
EDEN PRAIRIE   FAIR      37  31  78 W6        29.63R
SOUTH ST PAUL  FAIR      40  32  73 W6        29.63R
LAKE ELMO      FAIR      37  32  81 W6        29.64R
$$
MNZ001>005-007-008-013>017-022>024-027-028-200400-
   Northwest Minnesota

CITY           SKY/WX    TMP DP  RH WIND       PRES   REMARKS
BEMIDJI        FAIR      31  28  90 SW8       29.58R WCI  24
HALLOCK        FAIR      23  21  93 SW7       29.56R WCI  15
ROSEAU         CLOUDY    34  28  80 SW5       29.54R WCI  30
WARROAD        CLOUDY    36  32  87 W6        29.53R
THIEF RVR FALL FAIR      32  29  88 W9        29.59R WCI  24
CROOKSTON      FAIR      34  30  86 W13       29.62R WCI  25
FOSSTON        FAIR      27  25  93 SW7       29.61R WCI  19
DETROIT LAKES  FAIR      34  30  86 W10       29.65R WCI  26
MOORHEAD       FAIR      30  27  86 W7        29.66R WCI  23
PARK RAPIDS    FAIR      31  27  85 W10       29.61R WCI  22
MAHNOMEN       FAIR      31  28  89 SW8       29.63R WCI  24
$$
MNZ006-009>011-018-025>026-200400-
   North Central Minnesota

CITY           SKY/WX    TMP DP  RH WIND       PRES   REMARKS
BAUDETTE       FAIR      34  29  82 W7        29.51R WCI  28
FLAG ISLAND    CLOUDY    34  28  80 NW12      29.50R WCI  25
INTL FALLS     FAIR      35  28  75 W10       29.49R WCI  27
WASKISH        MOCLDY    30  28  93 SW7       29.56R WCI  23
BIG FORK       CLOUDY    36  30  80 W5        29.54R
LONGVILLE      FAIR      32  28  86 W3        29.59R
GRAND RAPIDS   FAIR      35  29  78 W8        29.58R WCI  29
CRANE LAKE     CLOUDY    36  30  80 W6G16     29.50R
ORR            CLOUDY    36  28  75 W10       29.48R
COOK             N/A     36  30  80 W12G23    29.51R
WALKER         FAIR      33  29  83 W10       29.59R WCI  25
$$
MNZ012-019>021-037-200400-
   Northeast Minnesota

CITY           SKY/WX    TMP DP  RH WIND       PRES   REMARKS
DULUTH         FAIR      39  28  64 NW13      29.51R
ELY            CLOUDY    36  30  80 W10       29.48R
HIBBING        FAIR      34  28  79 W8        29.52R WCI  27
EVELETH        FAIR      32  26  76 W7        29.53R WCI  26
DULUTH HARBOR  FAIR      39  30  70 W10       29.54R
TWO HARBORS    FAIR      41  30  65 W10       29.47R
GRAND MARAIS     N/A     40  32  73 W7        29.44R
G MARAIS ARPRT CLOUDY    34  27  75 W9        29.41R WCI  26
$$
MNZ029>031-032-039>041-046>048-054>057-064-200400-
   West Central Minnesota

CITY           SKY/WX    TMP DP  RH WIND       PRES   REMARKS
FERGUS FALLS   FAIR      30  30 100 W3        29.66R
MORRIS         PTCLDY    36  30  80 NW9       29.67R
ALEXANDRIA     FAIR      35  30  82 W10       29.65R WCI  27
ELBOW LAKE     FAIR      31  29  93 NW5       29.67R WCI  26
WADENA         FAIR      30  27  86 W7        29.63R WCI  23
GLENWOOD       FAIR      36  30  80 W8        29.66R
APPLETON       PTCLDY    34  28  80 W5        29.68R WCI  30
BENSON         CLOUDY    34  28  80 W3        29.69R
ORTONVILLE     PTCLDY    36  28  75 W6        29.68S
MADISON        CLOUDY    37  30  75 W6        29.68S
WILLMAR        FAIR      34  30  86 W6        29.70R WCI  29
$$
MNZ033>034-036-042>043-049>051-058-059-200400-
   Central Minnesota

CITY           SKY/WX    TMP DP  RH WIND       PRES   REMARKS
ST CLOUD       FAIR      35  29  78 W7        29.62R WCI  29
SAUK CENTRE      N/A     35  30  83 W8        29.64R WCI  28
PAYNESVILLE    FAIR      33  31  92 W5        29.66R WCI  29
AITKIN         FAIR      36  27  69 W6        29.58R
PINE RIVER     FAIR      32  27  80 CALM      29.64R
BRAINERD       FAIR      37  29  72 W10       29.61R
STAPLES        FAIR      30  27  86 W8        29.63R WCI  23
LONG PRAIRIE   FAIR      34  30  86 W7        29.63S WCI  28
LITTLE FALLS   FAIR      36  27  69 NW6       29.62S
LITCHFIELD     FAIR      36  30  80 W5        29.67R
BUFFALO        FAIR      36  29  78 W7        29.65R
MAPLE LAKE     FAIR      37  31  79 MISG      29.65R
HUTCHINSON     FAIR      37  32  84 W8        29.67R
$$
MNZ037-044-045-052-053-200400-
   East Central Minnesota

CITY           SKY/WX    TMP DP  RH WIND       PRES   REMARKS
PRINCETON      FAIR      37  30  75 W3        29.62R
MORA           FAIR      30  27  86 CALM      29.61R
CAMBRIDGE      FAIR      39  28  65 SW3       29.62R
RUSH CITY      FAIR      35  29  76 W5        29.61R WCI  31
MOOSE LAKE     FAIR      37  27  65 W7        29.55R
HINCKLEY       FAIR      28  27  93 SW3       29.59R
CLOQUET          N/A     37  27  65 W7        29.54R
MCGREGOR       FAIR      37  30  75 W7        29.57R
$$
MNZ071>073-080-081-089-090-097-098-200400-
   Southwest Minnesota

CITY           SKY/WX    TMP DP  RH WIND       PRES   REMARKS
MONTEVIDEO     CLOUDY    37  30  75 NW5       29.68S
GRANITE FALLS  CLOUDY    35  31  86 W5        29.70S WCI  31
CANBY          CLOUDY    38  30  73 NW6       29.69S
MARSHALL       PTCLDY    34  28  79 W6        29.69R WCI  29
REDWOOD FALLS  CLOUDY    37  30  75 NW9       29.68R
OLIVIA         CLOUDY    36  30  80 W7        29.67S
PIPESTONE      CLOUDY    34  28  80 CALM      29.69R
WINDOM         CLOUDY    36  19  51 W7        29.69R
WORTHINGTON    CLOUDY    34  29  82 NW8       29.70R WCI  27
JACKSON        PTCLDY    36  32  87 NW8       29.69R
TRACY          CLOUDY    36  30  80 SW6       29.68S
SLAYTON        MOCLDY    33  31  92 W5        29.69S WCI  29
$$
MNZ065>067-074>077-082>085-091>093-200400-
   South Central Minnesota

CITY           SKY/WX    TMP DP  RH WIND       PRES   REMARKS
MANKATO        FAIR      39  32  76 NW8       29.67R
NEW ULM        CLOUDY    36  28  75 W9        29.68R
ST JAMES       CLOUDY    39  32  75 W13       29.69R
FAIRMONT       CLOUDY    39  32  76 NW12      29.68R
GLENCOE        FAIR      37  32  81 W7        29.65R
FARIBAULT      FAIR      37  32  81 W7        29.65R
OWATONNA       FAIR      34  32  93 W3        29.66R
WASECA         FAIR      34  32  93 CALM      29.67R
ALBERT LEA     FAIR      37  30  75 W3        29.65R
$$
MNZ078>079-086>088-094>096-200400-
   Southeast Minnesota

CITY           SKY/WX    TMP DP  RH WIND       PRES   REMARKS
ROCHESTER      FAIR      33  31  92 SW8       29.63R WCI  26
RED WING       FAIR      30  27  86 CALM      29.63R
STANTON        FAIR      37  32  82 SW6       29.63R
DODGE CENTER   FAIR      37  32  81 W10       29.63R
WINONA         FAIR      36  30  80 CALM      29.63R
AUSTIN         FAIR      34  30  86 SW3       29.66R
PRESTON        FAIR      36  30  80 SW9       29.65R
$$
ABBREVIATIONS USED IN REMARKS
   TC - TEMPERATURES IN CELSIUS
  WCI - WIND CHILL INDEX
   HX - HEAT INDEX
  VSB - VISIBILITY
$$




USA.gov is the U.S. government's official web portal to all federal, state and local government web resources and services.